Regional Weather Roundup
Issued by NWS Northern Indiana

Home | Current Version | Previous Version | Text Only | Print | Product List | Glossary Off
Versions: 1 2 3 4 5 6 7 8 9 10 11 12 13 14 15 16 17 18 19 20 21 22 23 24 25 26 27 28 29 30 31 32 33 34 35 36 37 38 39 40 41 42 43 44 45 46 47 48 49 50

000
ASUS43 KIWX 292200
RWRIWX

KIWX WEATHER ROUNDUP
NATIONAL WEATHER SERVICE NORTHERN INDIANA
600 PM EDT SUN MAR 29 2015

NOTE: "FAIR" INDICATES FEW OR NO CLOUDS BELOW 12,000 FEET WITH NO
SIGNIFICANT WEATHER AND/OR OBSTRUCTIONS TO VISIBILITY.

* THESE STATIONS ARE NOT UNDER NWS QUALITY CONTROL. THEY ALSO MAY NOT
  REPORT WEATHER SUCH AS PRECIPITATION OR FOG.

INZ001>027-292300-
NORTHERN INDIANA

CITY           SKY/WX    TMP DP  RH WIND       PRES   REMARKS
GARY*          PTSUNNY   45  27  49 SW14G26   29.83F
SOUTH BEND     CLOUDY    40  26  57 SW17      29.85F
ELKHART*       LGT RAIN  39  21  48 SW12G21   29.86S
GOSHEN         CLOUDY    38  27  64 S15       29.87R
WARSAW*        LGT RAIN  37  28  70 SW7       29.88R
ANGOLA*        CLOUDY    37  25  60 S18       29.84F
FORT WAYNE     LGT RAIN  41  25  53 S14       29.89F

$$
INZ028>050-292300-
CENTRAL INDIANA

CITY           SKY/WX    TMP DP  RH WIND       PRES   REMARKS
LAFAYETTE      CLOUDY    42  32  67 SW8       29.92R
KOKOMO*          N/A     43  28  56 SW16      29.92R
MUNCIE*        CLOUDY    45  19  35 S16G28    29.91F
INDIANAPOLIS   LGT RAIN  49  23  36 SW13      29.94S

$$
MIZ043>046-050>051-056>058-064>065-071>073-077>080-292300-
SOUTHWEST LOWER MICHIGAN

CITY           SKY/WX    TMP DP  RH WIND       PRES   REMARKS
BATTLE CREEK   CLOUDY    37  25  61 SW20G29   29.83F
BENTON HARBOR  CLOUDY    38  27  64 S16G28    29.82F
COLDWATER*     CLOUDY    37  23  57 SW14G25   29.86R
HILLSDALE*     MIX PCPN  38  25  59 S17G26    29.84F
HOLLAND        CLOUDY    37  28  70 S17G25    29.78F
GRAND RAPIDS   CLOUDY    35  28  75 S20       29.79F WCI  24
KALAMAZOO      CLOUDY    37  26  64 S17       29.83F
STURGIS*       CLOUDY    37  25  60 S17       29.86R
THREE RIVERS*  CLOUDY    37  28  69 SW12G17   29.86S

$$
OHZ001>008-015>018-024>025-292300-
NORTHWEST OHIO

CITY           SKY/WX    TMP DP  RH WIND       PRES   REMARKS
FINDLAY        LGT RAIN  43  23  45 S20G29    29.91F
TOLEDO EXPRESS CLOUDY    41  22  46 S8G18     29.90F
TOLEDO METCALF CLOUDY    43  21  41 S20G29    29.91F
LIMA           CLOUDY    44  22  41 S18G26    29.92F

$$
AND FOR LAKE MICHIGAN COASTAL AND OPEN LAKE BUOY OBSERVATIONS

STATION/POSITION TEMP    WIND        PRES    VSBY  WAVE
                 AIR SEA DIR/SP/G                  HT/PER
                 (F)     (DEG/KT/KT) (MB)    (MI)  (FT/S)
CALUMET HARBOR    43     190/ 13/ 24 1008.6F
MICHIGAN CITY     37     170/ 20/ 26   N/A
BURNS HARBOR      41     200/ 26/ 32 1010.2S
SAINT JOSEPH      40     180/ 17/ 28 1010.5F

$$
&&


USA.gov is the U.S. government's official web portal to all federal, state and local government web resources and services.